Temperature
18 18 18 18 18 18 17 17 17 17 17 17 17 17 17 17 17 17 17 16 16 16 16 16 17 17 17 17 17 17 17 17 17 16 16 15 15 15 15 15 14 14 14
18 18 17 18 18 17 17 17 17 17 17 17 17 17 16 16 16 16 16 16 16 16 16 16 16 16 16 16 16 16 16 16 16 15 15 15 14 14 14 14 13 13 13
18 17 17 17 17 17 17 17 17 17 17 17 17 16 16 16 16 16 16 16 16 16 16 16 16 16 16 16 16 16 16 15 15 15 14 14 13 13 13 13 13 12 12
18 17 17 17 17 17 17 17 17 17 16 16 16 16 16 16 16 16 16 15 15 15 15 15 15 15 15 15 15 15 15 15 14 14 14 13 13 12 12 12 12 11 11
17 17 17 17 17 17 16 16 16 16 16 16 16 16 16 15 15 15 15 15 15 15 15 15 15 15 14 14 14 14 14 14 14 13 13 12 12 12 12 11 11 11 11
17 17 17 17 17 16 16 16 16 16 16 15 15 15 15 15 15 15 15 15 15 14 14 14 14 14 14 14 13 13 13 13 13 12 12 11 11 11 11 10 10 10 10
17 17 17 16 16 16 16 16 15 15 15 15 15 15 15 15 15 15 15 15 14 14 13 13 13 13 13 13 12 12 12 12 12 11 11 11 10 10 10 9 9 9 9
17 16 16 16 16 16 15 15 15 15 15 15 15 14 14 14 14 14 14 14 13 13 13 12 12 12 11 11 11 11 11 11 11 10 10 10 9 9 9 8 8 8 8
16 16 16 16 15 15 15 15 15 15 14 14 14 14 14 13 13 13 13 13 13 12 12 11 11 11 11 10 10 10 10 9 9 9 9 9 8 8 8 8 8 7 7
16 16 16 15 15 15 15 15 14 14 14 14 13 13 13 13 13 12 12 12 12 11 11 11 10 10 10 10 9 9 9 8 8 8 8 8 7 7 7 7 7 7 6
16 15 15 15 15 14 14 14 14 14 13 13 13 12 12 12 12 12 11 11 11 11 10 10 10 9 9 9 9 8 8 8 8 7 7 7 7 6 6 6 6 6 6
15 15 15 15 14 14 14 13 13 13 13 12 12 12 11 11 11 11 10 10 10 10 10 9 9 8 8 8 8 8 7 7 7 7 6 6 6 6 6 5 5 5 5
15 15 14 14 13 13 13 13 13 12 12 12 11 11 11 10 10 10 9 9 9 9 9 8 8 7 7 7 7 7 7 6 6 6 6 6 5 5 5 5 5 5 5
14 14 13 13 13 12 12 12 12 12 12 11 11 10 10 10 9 9 8 8 8 8 8 7 7 7 6 6 6 6 6 6 6 6 5 5 5 5 5 5 5 4 5
13 13 13 12 12 12 12 12 11 11 11 11 11 10 10 9 9 8 8 8 8 7 7 7 6 6 6 6 6 5 5 5 5 5 5 5 5 5 5 4 4 4 4
13 12 12 12 11 11 11 11 10 10 10 10 10 10 9 9 8 8 7 7 7 7 7 6 6 6 6 6 6 6 5 5 5 5 5 5 5 4 4 4 4 4 4
12 12 11 11 11 10 10 10 9 9 9 9 9 8 8 8 7 7 7 7 6 6 6 6 6 6 6 6 6 6 5 5 5 5 5 4 4 4 4 4 4 4 4
11 11 11 10 10 10 10 9 9 9 8 8 7 7 7 7 7 6 6 6 6 6 6 6 6 6 6 6 6 5 5 5 5 5 5 4 4 4 4 4 4 4 4
11 10 10 10 9 9 9 8 8 8 8 7 7 6 6 6 6 6 6 6 6 6 6 6 6 6 6 5 5 5 5 5 5 5 5 4 4 4 4 4 4 4 4
10 10 10 9 9 8 8 8 8 7 7 7 6 6 6 6 5 5 6 6 6 6 6 6 6 6 5 5 5 5 5 5 5 5 4 4 4 4 4 4 4 4 4
9 9 9 9 9 8 8 8 7 7 7 6 6 6 6 6 6 6 6 6 6 6 6 6 6 6 5 5 5 5 5 5 4 4 4 4 4 4 4 4 4 4 3
9 8 9 8 8 8 8 8 7 7 7 6 6 6 6 6 6 6 6 6 6 6 6 6 6 6 5 5 5 5 5 5 4 4 4 4 4 4 4 4 3 3 3
9 9 8 8 8 8 8 7 7 7 7 6 6 6 6 6 6 6 6 6 6 6 6 6 6 6 5 5 5 4 4 4 4 4 4 4 3 3 3 3 3 3 3
9 8 8 8 8 8 8 7 7 7 7 6 6 6 6 6 6 6 6 6 6 6 5 5 5 5 5 5 5 4 4 4 4 4 4 4 3 3 3 3 3 3 3
9 8 8 8 8 8 7 7 7 7 7 7 6 6 6 6 6 6 6 6 6 5 5 5 5 5 5 5 5 4 4 4 4 4 4 4 3 3 3 3 3 3 3
9 8 8 8 8 8 8 8 7 7 7 7 7 7 7 6 6 6 6 6 6 6 5 5 5 5 5 5 5 5 4 4 4 4 4 4 4 3 3 3 3 3 3
Wind_Speed
7 7 6 6 6 5 5 5 5 5 6 6 6 6 6 5 5 4 3 4 4 3 2 2 3 3 4 4 3 4 4 3 3 3 4 4 5 6 5 5 6 8 8
7 7 6 6 5 5 5 4 4 5 6 6 5 5 5 5 5 5 4 4 4 3 2 3 3 2 4 4 4 4 3 3 3 4 3 4 5 4 3 2 4 5 6
7 7 6 6 5 4 4 4 4 5 5 5 5 5 5 5 5 5 4 5 5 4 5 5 4 5 5 5 5 5 4 4 4 4 3 3 4 3 3 4 5 5 4
6 6 6 5 5 4 4 4 5 5 5 5 5 5 5 4 5 6 6 7 7 7 8 8 7 7 6 5 5 5 5 4 4 4 4 4 4 4 4 3 3 4 3
5 5 5 5 4 4 4 5 5 5 6 5 5 5 4 4 5 8 9 9 9 10 10 11 11 14 15 10 7 6 6 5 4 5 5 5 5 4 4 4 4 3 3
5 5 5 5 5 5 5 5 5 5 5 6 6 6 5 5 9 12 11 10 10 10 10 10 10 12 15 17 17 16 12 8 6 5 5 6 5 5 4 4 4 3 3
5 5 6 6 5 5 6 6 6 6 7 8 7 8 8 8 13 14 14 11 10 9 8 7 8 9 9 9 12 14 15 16 12 8 8 6 5 5 4 4 4 4 3
5 6 6 6 6 6 6 6 6 6 7 7 8 8 9 10 14 16 16 12 10 9 8 8 8 7 6 6 9 9 9 9 10 8 7 6 5 4 4 4 4 4 2
5 6 6 6 6 6 6 6 6 7 7 8 9 9 10 10 12 13 13 10 10 10 9 9 8 8 8 8 8 9 8 6 11 12 11 9 7 6 7 5 5 4 4
5 6 6 6 7 7 7 7 7 8 8 9 9 9 10 9 10 12 11 10 11 10 9 9 11 10 11 9 7 7 7 4 4 4 4 3 3 2 5 5 5 6 5
5 6 7 7 6 7 7 7 8 8 9 10 10 9 9 9 10 10 10 8 9 9 8 7 6 11 12 11 9 6 4 2 0 1 3 3 3 4 6 7 6 3 3
6 7 7 7 6 7 8 8 9 9 10 10 10 10 8 8 9 10 11 10 10 9 8 7 7 11 12 10 7 5 5 3 0 2 4 4 4 4 3 3 2 2 3
7 7 8 8 7 7 8 9 8 8 8 8 9 9 8 8 9 14 15 16 14 10 9 12 10 9 7 6 5 5 4 2 2 4 4 4 3 1 2 2 3 4 5
8 8 8 9 9 8 6 6 7 7 8 8 9 9 9 8 8 8 9 11 14 12 10 10 9 6 3 2 2 0 1 3 3 3 3 3 2 2 2 3 3 3 3
8 8 9 9 9 9 9 8 7 5 5 8 8 9 10 9 7 9 8 7 8 8 8 6 4 4 3 3 3 3 3 3 3 3 3 3 3 2 2 2 3 4 4
8 8 8 8 8 10 11 11 18 14 16 15 14 12 9 11 14 14 13 12 11 9 6 5 4 4 4 4 4 3 3 4 3 2 3 3 2 2 2 2 2 3 4
8 8 8 9 9 10 10 11 11 13 18 18 16 16 15 15 15 14 12 10 8 5 2 3 4 3 3 3 3 4 4 3 1 2 2 2 2 2 2 2 3 3 4
9 9 9 8 9 9 10 10 10 11 10 9 11 14 14 14 12 11 10 7 4 3 2 3 4 4 3 3 3 3 3 3 1 0 1 2 2 2 3 3 3 3 4
8 8 8 9 9 10 10 10 10 11 10 10 8 8 9 9 8 6 4 3 4 4 4 4 4 4 4 4 3 3 2 2 1 1 1 1 2 3 3 3 3 4 4
8 12 11 9 10 9 9 10 10 10 10 10 9 9 7 7 6 5 4 3 3 3 3 4 4 4 4 4 3 1 1 2 1 0 2 2 2 3 4 4 4 4 4
9 10 12 10 9 9 9 10 10 10 10 9 9 9 9 7 7 6 5 4 3 3 4 4 4 4 4 3 3 1 1 1 2 2 2 2 3 3 3 4 4 4 5
9 8 8 8 8 8 9 9 9 9 10 10 9 9 8 5 5 6 5 4 3 3 4 3 3 3 3 3 2 1 0 2 3 2 2 2 3 3 4 4 4 5 5
8 9 8 8 8 9 9 9 9 9 9 9 9 8 7 5 4 4 4 4 3 4 5 4 2 3 5 5 4 2 2 3 3 2 2 3 3 4 4 4 6 7 6
8 9 10 9 8 8 8 8 8 9 9 9 8 8 7 5 4 5 4 4 4 4 5 5 4 4 6 5 4 4 5 5 2 2 3 3 5 4 5 5 6 7 7
8 9 9 8 8 7 7 7 7 7 8 8 8 8 7 6 5 5 5 4 5 4 6 6 6 6 7 6 5 7 7 6 2 1 3 5 5 5 6 7 6 7 7
7 8 7 7 7 7 7 7 7 7 7 7 7 7 6 6 6 6 6 5 5 5 6 7 7 8 8 8 8 10 10 7 6 5 5 6 6 6 6 6 9 8 8
Wind_Direction
176 180 180 182 188 194 200 200 191 182 179 177 175 171 168 167 170 171 185 165 168 169 192 134 106 43 30 25 31 41 42 57 92 87 76 69 65 69 71 81 120 116 114
171 167 174 177 175 184 189 190 181 177 176 168 163 165 170 168 166 163 180 154 137 134 122 101 98 94 70 37 35 45 47 58 89 107 98 81 66 62 52 29 68 92 106
166 166 169 173 175 182 182 181 174 167 165 166 165 165 167 164 158 154 151 125 120 115 105 94 84 80 70 57 46 38 30 51 68 98 99 82 67 44 30 29 44 49 63
160 164 163 167 166 167 167 166 162 160 158 159 155 154 156 157 147 139 128 111 102 90 86 82 73 71 66 60 61 47 42 43 64 83 89 83 64 39 41 17 32 21 21
151 156 150 145 142 142 139 143 144 149 153 146 138 131 135 147 146 131 123 119 109 98 88 82 77 77 70 65 67 55 52 52 60 71 77 71 54 39 22 359 26 15 9
147 147 141 138 137 139 140 138 134 132 128 122 118 118 117 128 123 123 123 116 113 110 105 97 91 84 83 79 75 68 62 64 57 65 72 73 58 36 13 8 18 1 352
148 149 145 138 135 134 135 128 125 124 119 114 113 112 110 106 108 110 113 114 110 109 109 107 101 97 93 94 86 77 65 60 62 76 76 68 64 30 10 5 7 348 320
151 149 148 143 138 132 127 126 125 123 119 118 115 114 110 108 108 108 107 106 103 99 97 97 97 88 83 96 98 87 74 59 66 76 80 71 69 31 7 348 336 325 322
152 145 145 143 139 134 130 130 129 127 124 121 120 120 116 110 110 114 113 108 103 93 86 83 91 85 66 89 104 103 99 90 82 94 100 99 83 51 23 10 3 357 3
143 138 132 133 135 133 129 123 119 122 121 118 113 111 114 114 112 115 115 116 111 106 95 81 75 79 68 73 91 95 93 83 92 113 124 133 133 82 52 39 21 7 359
132 132 128 128 129 127 121 117 118 117 115 111 107 101 99 98 97 102 114 118 122 118 110 98 81 78 73 69 76 82 84 68 30 125 119 109 90 73 60 50 42 23 7
124 124 122 120 123 126 123 120 119 119 118 116 111 103 91 85 85 87 92 102 113 114 111 107 98 84 76 71 71 52 31 6 31 80 78 67 64 57 41 20 356 294 257
124 124 121 118 112 115 121 125 124 123 123 124 120 115 109 99 85 83 87 91 93 99 105 111 112 103 93 84 78 44 19 26 54 71 72 67 69 68 327 328 324 301 283
123 123 121 118 112 105 105 111 116 125 130 129 128 127 123 117 113 109 103 100 99 104 111 114 113 105 79 72 114 82 68 50 46 59 62 59 45 38 27 9 348 327 317
122 123 120 118 117 102 85 70 88 84 119 134 135 135 134 129 123 122 128 121 121 119 129 136 146 152 160 156 126 98 87 76 58 54 51 43 30 22 18 3 338 332 344
128 127 127 125 119 114 104 83 60 68 73 81 93 106 102 112 118 108 103 106 112 127 137 149 150 147 137 129 126 120 100 76 47 42 47 37 17 1 357 351 341 343 344
131 132 130 128 126 125 122 115 103 76 68 72 84 96 108 113 109 107 107 109 118 124 130 129 120 117 116 119 114 108 104 100 52 21 40 29 360 345 348 347 347 359 350
120 120 125 128 129 128 126 124 122 119 110 92 82 94 105 109 109 110 110 111 135 162 178 140 129 128 120 109 104 97 103 115 102 7 35 16 354 342 344 348 356 2 334
122 125 123 124 124 126 128 126 124 122 120 119 118 107 108 114 114 125 139 165 173 168 166 146 141 141 128 108 98 95 96 101 91 313 57 22 348 344 349 343 344 341 322
117 123 125 125 126 130 133 131 129 130 131 134 137 138 145 148 150 160 184 208 200 164 154 138 123 115 112 114 119 129 169 154 157 301 61 12 357 350 343 338 341 338 331
122 124 124 124 129 134 135 134 135 136 138 141 142 148 159 165 165 170 181 200 203 152 131 121 121 129 129 143 140 178 236 121 90 47 32 9 353 343 328 327 334 336 329
126 132 136 132 133 133 131 132 134 136 140 142 144 157 177 193 180 174 181 178 150 123 121 129 151 145 137 135 141 173 204 87 78 49 9 348 333 324 323 329 334 325 317
134 132 128 124 124 125 133 136 138 141 145 147 152 162 178 200 196 172 169 158 140 138 138 151 167 140 132 135 139 123 75 71 65 44 345 332 333 329 326 330 325 320 323
129 129 129 130 133 141 141 139 144 149 151 156 161 166 176 194 200 167 160 153 146 153 157 169 185 157 142 146 154 136 117 102 75 11 350 329 314 313 318 315 311 314 316
135 136 138 141 144 145 148 151 151 153 158 163 166 172 182 189 186 165 168 167 169 177 182 184 185 179 172 174 171 149 140 137 141 301 301 293 295 299 300 303 307 308 310
140 140 142 145 149 152 155 157 160 164 169 171 173 179 187 189 187 183 182 179 182 185 189 195 198 196 191 192 185 166 165 176 198 226 253 277 283 286 297 299 303 304 306
Height
1507 1509 1511 1514 1516 1518 1520 1522 1525 1527 1530 1533 1535 1538 1540 1543 1545 1548 1550 1552 1554 1556 1558 1559 1561 1562 1563 1565 1566 1567 1569 1569 1570 1572 1572 1573 1573 1573 1573 1573 1573 1573 1573
1506 1508 1510 1512 1514 1516 1518 1520 1522 1524 1527 1529 1532 1535 1538 1540 1543 1545 1547 1549 1551 1553 1555 1557 1558 1560 1562 1563 1564 1565 1567 1567 1568 1569 1570 1571 1571 1571 1571 1572 1572 1571 1570
1506 1507 1509 1511 1512 1514 1516 1518 1520 1522 1524 1527 1529 1532 1535 1538 1540 1543 1545 1547 1549 1551 1553 1555 1556 1558 1560 1561 1562 1563 1564 1566 1566 1567 1568 1569 1569 1569 1569 1570 1570 1569 1569
1505 1507 1508 1510 1511 1513 1514 1516 1518 1520 1522 1524 1527 1529 1532 1535 1538 1540 1543 1545 1547 1549 1551 1553 1554 1556 1558 1559 1560 1561 1563 1564 1565 1565 1566 1566 1567 1567 1567 1568 1567 1567 1567
1505 1506 1507 1509 1510 1511 1513 1514 1516 1518 1520 1522 1525 1528 1530 1533 1536 1538 1541 1543 1545 1547 1549 1551 1552 1554 1556 1557 1559 1560 1561 1562 1563 1563 1564 1564 1565 1565 1566 1566 1565 1565 1565
1503 1505 1506 1508 1509 1510 1512 1513 1515 1517 1519 1521 1523 1526 1528 1531 1534 1536 1539 1541 1543 1545 1547 1549 1551 1552 1554 1555 1557 1558 1559 1560 1561 1562 1562 1563 1563 1563 1563 1563 1563 1563 1563
1502 1503 1505 1506 1508 1509 1511 1512 1514 1516 1518 1520 1522 1525 1527 1530 1532 1535 1537 1539 1541 1544 1546 1548 1549 1551 1553 1554 1555 1556 1557 1558 1560 1561 1561 1561 1562 1561 1561 1561 1561 1561 1561
1501 1502 1503 1505 1507 1508 1509 1511 1513 1515 1517 1519 1521 1523 1526 1528 1531 1533 1535 1538 1540 1543 1545 1547 1548 1550 1551 1552 1553 1555 1556 1557 1558 1559 1560 1560 1561 1561 1560 1560 1560 1560 1560
1499 1500 1502 1503 1505 1506 1508 1509 1511 1513 1515 1517 1520 1522 1524 1527 1530 1532 1535 1537 1539 1541 1544 1546 1547 1549 1550 1552 1553 1554 1555 1556 1558 1559 1560 1560 1560 1560 1559 1559 1558 1558 1558
1498 1499 1500 1502 1504 1505 1506 1508 1510 1512 1514 1516 1518 1521 1524 1526 1529 1531 1534 1536 1538 1540 1543 1545 1547 1548 1550 1551 1552 1553 1555 1556 1558 1558 1559 1559 1559 1559 1559 1558 1557 1556 1556
1496 1497 1498 1500 1502 1504 1505 1507 1509 1511 1513 1515 1517 1520 1523 1526 1529 1531 1533 1535 1537 1539 1541 1543 1545 1548 1549 1550 1552 1553 1554 1556 1558 1559 1560 1560 1559 1559 1559 1558 1557 1556 1555
1495 1496 1497 1499 1501 1503 1504 1506 1509 1511 1513 1515 1517 1520 1523 1525 1528 1531 1533 1535 1537 1539 1541 1543 1545 1547 1549 1550 1552 1553 1554 1556 1557 1559 1559 1559 1559 1559 1558 1557 1556 1556 1555
1492 1494 1496 1498 1500 1501 1503 1506 1508 1511 1513 1515 1517 1519 1522 1525 1528 1531 1533 1536 1538 1539 1541 1543 1545 1547 1549 1550 1552 1553 1554 1555 1557 1558 1559 1559 1559 1559 1558 1558 1557 1556 1554
1490 1493 1495 1497 1499 1501 1504 1506 1508 1510 1512 1514 1517 1519 1522 1525 1527 1530 1533 1535 1538 1540 1542 1543 1545 1547 1549 1551 1552 1554 1555 1556 1557 1558 1558 1559 1559 1558 1558 1557 1556 1555 1554
1489 1491 1494 1496 1498 1500 1503 1505 1508 1510 1513 1515 1517 1519 1521 1523 1527 1530 1533 1536 1538 1540 1543 1545 1547 1549 1551 1552 1554 1555 1556 1557 1558 1558 1559 1559 1559 1558 1558 1557 1556 1555 1554
1487 1489 1492 1495 1497 1499 1502 1504 1508 1511 1513 1515 1517 1520 1522 1525 1528 1531 1534 1537 1540 1542 1544 1546 1549 1551 1553 1554 1556 1557 1557 1558 1558 1559 1559 1559 1559 1559 1558 1557 1556 1555 1553
1486 1488 1491 1494 1496 1499 1501 1504 1507 1511 1514 1516 1519 1521 1524 1526 1529 1532 1535 1538 1541 1544 1546 1548 1551 1552 1554 1556 1557 1558 1558 1558 1559 1559 1559 1559 1559 1559 1558 1557 1556 1554 1552
1485 1488 1491 1493 1496 1499 1502 1504 1508 1511 1513 1516 1520 1523 1526 1528 1531 1534 1537 1540 1542 1545 1547 1550 1552 1554 1555 1556 1557 1558 1558 1559 1559 1560 1560 1559 1559 1558 1558 1557 1555 1554 1552
1486 1489 1491 1494 1497 1500 1503 1506 1509 1512 1515 1517 1521 1524 1527 1530 1533 1536 1539 1541 1544 1547 1549 1551 1553 1554 1555 1556 1557 1558 1558 1559 1559 1560 1559 1559 1559 1558 1557 1556 1555 1553 1551
1487 1490 1492 1495 1498 1501 1504 1507 1510 1513 1516 1519 1522 1525 1528 1531 1534 1537 1540 1543 1545 1548 1550 1551 1553 1554 1555 1556 1557 1557 1558 1559 1559 1559 1559 1558 1558 1557 1556 1555 1554 1552 1550
1488 1491 1494 1497 1500 1503 1506 1509 1512 1515 1518 1521 1524 1527 1530 1533 1536 1539 1541 1543 1546 1548 1550 1551 1552 1554 1554 1555 1556 1557 1558 1558 1558 1558 1558 1557 1557 1556 1555 1554 1553 1551 1549
1491 1493 1497 1499 1502 1505 1507 1510 1514 1517 1520 1523 1526 1529 1532 1535 1538 1540 1542 1544 1546 1547 1549 1550 1552 1553 1554 1555 1555 1556 1557 1557 1557 1556 1556 1556 1555 1554 1553 1552 1551 1549 1547
1495 1497 1499 1502 1505 1507 1510 1512 1515 1518 1522 1525 1527 1530 1533 1535 1538 1541 1542 1544 1546 1547 1548 1550 1551 1552 1553 1553 1554 1555 1555 1555 1555 1554 1554 1553 1553 1552 1551 1550 1549 1547 1545
1498 1500 1502 1504 1507 1510 1512 1514 1517 1520 1523 1526 1528 1531 1533 1535 1538 1540 1542 1543 1545 1546 1547 1548 1550 1550 1551 1552 1552 1553 1553 1553 1553 1552 1552 1551 1550 1550 1549 1548 1546 1545 1543
1501 1503 1505 1507 1510 1512 1514 1516 1519 1521 1524 1527 1529 1531 1534 1535 1537 1539 1541 1542 1544 1545 1546 1547 1548 1549 1549 1550 1551 1551 1551 1551 1551 1550 1549 1548 1548 1547 1546 1545 1544 1542 1540
1504 1505 1507 1509 1512 1514 1516 1518 1520 1522 1525 1527 1529 1531 1533 1535 1536 1538 1539 1541 1542 1543 1544 1545 1546 1547 1547 1548 1548 1548 1548 1548 1548 1547 1547 1546 1545 1544 1543 1542 1540 1539 1537